USTRANSCOM 7612


PKWA
Bucholz AAF Airport
Kwajalein Atoll, MH
PHNL
Daniel K Inouye International Airport
Honolulu, US

Activity Log

Date Flight Route Aircraft Duration
03/26/2019 CMB812 NDJ 1130N/17200E MANRE R584 MCFLY R584 CHOKO B752 5h 00m

Route Details

Aircraft Information
Primary: Boeing 757-200SF
Backup: Not Available
Route Data
Distance: 2127nm
Sched. Duration: 4h 04m
Avg. Duration: 5h 00m (+95m)
Times Flown: 1
Recm'd Route: NDJ 1130N/17200E MANRE R584 MCFLY R584 CHOKO
Planned Altitude: 35,000ft
Origin Wx: PKWA 251300Z AUTO 07011KT 10SM SCT018 SCT031 SCT049 28/25 A2980 RMK AO2 T02800253
Dest. Wx: PHNL 251253Z 35004KT 10SM FEW025 22/21 A2993 RMK AO2 SLP134 T02220206 $
Notes: USTRANSCOM CONTRACT FLIGHT

Financial History
Total Freight: 22,457lbs
Average Load: 22,457lbs/flt
Fuel Used: 29,486lbs
Avg. Fuel Used: 29,486lbs/flt
Fuel Expense: $23,589
Avg. Fuel Expense: $23,589
Avg. Fuel Cost: $0.80/lbs
Total Gross Income: $33,236
Pilot Pay: $229
Total Expenses: $3,642
Total Revenue: $4,811
Average Revenue: $33,236.36